Regional Weather Roundup
Issued by NWS

Home | Current Version | Previous Version | Graphics & Text | Print | Product List | Glossary On
Versions: 1 2 3 4 5 6 7 8 9 10 11 12 13 14 15 16 17 18 19 20 21 22 23 24 25 26 27 28 29 30 31 32 33 34 35 36 37 38 39 40 41 42 43 44 45 46 47 48 49 50
000
ASUS43 KMKX 302321
RWRWI

WISCONSIN REGIONAL WEATHER ROUNDUP
NATIONAL WEATHER SERVICE MILWAUKEE/SULLIVAN WI
600 PM CDT TUE JUN 30 2015

NOTE: "FAIR" INDICATES FEW OR NO CLOUDS BELOW 12,000 FEET WITH NO
SIGNIFICANT WEATHER AND/OR OBSTRUCTIONS TO VISIBILITY.

WIZ001-002-006>008-014>016-023>028-010000-
NORTHWEST WISCONSIN

CITY           SKY/WX    TMP DP  RH WIND       PRES   REMARKS
SUPERIOR ARPT  MOSUNNY   60  50  70 E7        29.96F
ASHLAND        MOSUNNY   61  51  70 N9        29.98S
HAYWARD        PTSUNNY   64  48  56 NE9       29.97R
SIREN          PTSUNNY   70  50  49 N6        29.95S
CUMBERLAND     PTSUNNY   68  50  52 N9        29.94S
RICE LAKE      PTSUNNY   69  52  54 N13       29.95S
CHETEK         PTSUNNY   68  52  56 N8        29.93S
LADYSMITH      PTSUNNY   67  49  52 N13       29.95S
EAU CLAIRE     PTSUNNY   73  50  44 N8        29.91R
MENOMONIE      MOSUNNY   73  51  47 N10       29.91F
NEW RICHMOND   MOSUNNY   70  51  49 CALM      29.94S
OSCEOLA        MOSUNNY   72  54  54 N3        29.95S
$$

WIZ003>005-009-010-017-018-010000-
NORTH CENTRAL WISCONSIN

CITY           SKY/WX    TMP DP  RH WIND       PRES   REMARKS
MANITOWISH WTR SUNNY     59  46  62 NE9       29.95F
ARBOR VITAE    SUNNY     62  49  62 N14       29.94F
WOODRUFF       SUNNY     62  49  62 N14       29.94F
RHINELANDER    SUNNY     61  47  59 N7        29.94F
EAGLE RIVER    SUNNY     58  44  58 N9        29.94F
LAND O LAKES   PTSUNNY   58  47  66 N9        29.96S
PHILLIPS       PTSUNNY   63  49  61 N7        29.93F
TOMAHAWK       SUNNY     63  47  55 N6        29.93F
MEDFORD        PTSUNNY   65  48  54 N9G16     29.92S
MERRILL        MOSUNNY   65  51  60 N9        29.92F
$$

WIZ029-030-035-036-043>047-010000-
CENTRAL WISCONSIN

CITY           SKY/WX    TMP DP  RH WIND       PRES   REMARKS
WAUSAU         MOSUNNY   65  50  58 N10       29.89F
MOSINEE        CLOUDY    64  55  72 N14       29.92
MARSHFIELD     CLOUDY    67  51  56 N10       29.90F
STEVENS POINT  CLOUDY    65  53  64 NW10      29.89S
WAUPACA        CLOUDY    70  56  61 N7        29.87S
WAUTOMA        MOSUNNY   71  55  56 N12       29.87R
WISC RAPIDS    MOSUNNY   69  52  54 N16       29.90S
CAMP DOUGLAS   PTSUNNY   72  63  73 N13G18    29.88R
$$

WIZ011>013-019>022-031-037>040-048>050-010000-
NORTHEAST WISCONSIN

CITY           SKY/WX    TMP DP  RH WIND       PRES   REMARKS
ANTIGO         MOSUNNY   63  52  68 N12       29.91F
SHAWANO        CLOUDY    68  55  63 N9        29.88S
OCONTO         CLOUDY    63  54  70 N10       29.88R
STURGEON BAY   CLOUDY    61  52  72 N15       29.90R
GREEN BAY      CLOUDY    68  56  65 N14       29.87R
MANITOWOC      CLOUDY    62  56  80 MISG      29.87R
APPLETON       PTSUNNY   68  55  64 N12       29.87R
CLINTONVILLE   CLOUDY    68  54  60 N8        29.87S
OSHKOSH        MOSUNNY   71  57  61 N14       29.85S
$$

WIZ032>034-041-042-053>061-010000-
SOUTHWEST WISCONSIN

CITY           SKY/WX    TMP DP  RH WIND       PRES   REMARKS
LA CROSSE      MOSUNNY   76  52  43 N13       29.88S
SPARTA         MOSUNNY   74  51  44 NW10      29.89S
VIROQUA        MOSUNNY   70  54  57 NW9       29.90S
BOSCOBEL       SUNNY     76  58  53 N5        29.87S
PRAIRIE DU CHI MOSUNNY   74  56  53 NW6       29.87S
PLATTEVILLE    MOSUNNY   75  61  60 NW8       29.87S
$$

WIZ056-057-062-063-064-067-068-010000-
SOUTH CENTRAL WISCONSIN

CITY           SKY/WX    TMP DP  RH WIND       PRES   REMARKS
REEDSBURG      MOSUNNY   72  56  57 N10       29.86F
BARABOO/DELLS  PTSUNNY   72  52  49 N5        29.87S
LONE ROCK      MOSUNNY   75  58  55 NW7       29.86S
MINERAL POINT  MOSUNNY   73  55  53 N7        29.87F
MADISON        PTSUNNY   74  58  57 N7        29.85R
MIDDLETON      CLOUDY    75  57  54 N9        29.86S
WATERTOWN      MOSUNNY   73  57  57 N9        29.84S
MONROE         MOSUNNY   73  61  64 N6        29.86S
JANESVILLE     PTSUNNY   75  57  53 N7        29.84S
$$

WIZ051-052-058>065-066-070>072-010000-
SOUTHEAST WISCONSIN

CITY           SKY/WX    TMP DP  RH WIND       PRES   REMARKS
MILWAUKEE      MOSUNNY   61  55  81 NE9       29.86R
WAUKESHA       PTSUNNY   68  59  73 E8        29.86R
MILWAUKEE/TIMM MOSUNNY   64  54  68 NE9       29.86R
RACINE         SUNNY     60  54  80 NE12      29.88R
BURLINGTON     PTSUNNY   69  60  73 E7        29.84S
KENOSHA        SUNNY     66  58  75 E6        29.86R
FOND DU LAC    PTSUNNY   71  58  63 NE13      29.86R
SHEBOYGAN      CLOUDY    61  56  83 NE10      29.87R
WEST BEND      PTSUNNY   72  55  56 N8        29.85S
JUNEAU         PTSUNNY   71  59  66 NE8       29.86S
$$

LSZ147-162-010000-
LAKE SUPERIOR

STATION/POSITION TIME  TEMP    WIND        PRES    WAVE
                       AIR SEA DIR/SP/G            HT/PER
                 (UTC) (F)     (DEG/KT/KT) (MB)    (FT/S)
W MID LAKE BUOY  2250   43 39  300/  2/  2 1015.5F   1/ 5
DEVILS ISLAND    2300   56     160/  4/  7 1015.6F
SAXON HARBOR     2240   55        CALM     1014.9F
$$

LMZ867-665-643>646-010000-
LAKE MICHIGAN

STATION/POSITION TIME  TEMP    WIND        PRES    WAVE
                       AIR SEA DIR/SP/G            HT/PER
                 (UTC) (F)     (DEG/KT/KT) (MB)    (FT/S)
CHAMBERS ISLAND  2200   63     340/ 17/ 19 1011.2S
N MID LAKE BUOY  2250   49 42  320/ 16/ 17 1011.2R   3/ 4
NORTHPORT PIER   2200   57     350/ 21/ 24 1011.2S
SISTER BAY       2214   60      40/ 17/ 19   N/A
ALGOMA LAKESHORE 2210           70/  6/  9   N/A
KEWAUNEE LAKESHO 2200   59      50/  7/  8 1010.3R
SHEBOYGAN LAKESH 2300   55      40/ 10/ 11 1011.7R
PORT WASHINGTON  2200   61      50/ 10/ 12 1011.5
ATWATER BUOY     2300   58      20/  6/  8 1012.5R
MILWAUKEE LAKESH 2300   57      40/  7/  8   N/A
KENOSHA   LAKESH 2300   58      30/ 11/ 11 1011.2S
$$

TC  - TEMPERATURE IN CELSIUS
VSB - VISIBILITY IN STATUTE MILES
WCI - WIND CHILL INDEX
HX  - HEAT INDEX




USA.gov is the U.S. government's official web portal to all federal, state and local government web resources and services.